Time,TemperatureF,DewpointF,PressureIn,WindDirection,WindDirectionDegrees,WindSpeedMPH,WindSpeedGustMPH,Humidity,HourlyPrecipIn,Conditions,Clouds,dailyrainin,SoftwareType,DateUTC
2013-05-14 00:02:00,68.0,50.0,30.11,South,173,3.0,6.0,52,0.00,,,0.00,,2013-05-14 05:02:00,
2013-05-14 00:12:00,68.0,50.0,30.11,South,173,3.0,6.0,52,0.00,,,0.00,,2013-05-14 05:12:00,
2013-05-14 00:22:00,68.0,50.0,30.11,South,173,3.0,6.0,52,0.00,,,0.00,,2013-05-14 05:22:00,
2013-05-14 00:32:00,67.0,50.0,30.11,SSE,168,2.0,6.0,54,0.00,,,0.00,,2013-05-14 05:32:00,
2013-05-14 00:42:00,67.0,50.0,30.11,SSE,168,2.0,6.0,54,0.00,,,0.00,,2013-05-14 05:42:00,
2013-05-14 00:52:00,67.0,50.0,30.11,SSE,168,2.0,6.0,54,0.00,,,0.00,,2013-05-14 05:52:00,
2013-05-14 01:01:00,65.0,49.0,30.11,South,169,1.0,3.0,56,0.00,,,0.00,,2013-05-14 06:01:00,
2013-05-14 01:12:00,65.0,49.0,30.11,South,169,1.0,3.0,56,0.00,,,0.00,,2013-05-14 06:12:00,
2013-05-14 01:22:00,65.0,49.0,30.11,South,169,1.0,3.0,56,0.00,,,0.00,,2013-05-14 06:22:00,
2013-05-14 01:32:00,65.0,49.0,30.11,South,169,1.0,3.0,56,0.00,,,0.00,,2013-05-14 06:32:00,
2013-05-14 01:52:00,64.0,50.0,30.10,SSE,166,1.0,3.0,61,0.00,,,0.00,,2013-05-14 06:52:00,
2013-05-14 02:02:00,63.0,51.0,30.09,South,169,2.0,3.0,64,0.00,,,0.00,,2013-05-14 07:02:00,
2013-05-14 02:11:00,63.0,51.0,30.09,South,169,2.0,3.0,64,0.00,,,0.00,,2013-05-14 07:11:00,
2013-05-14 02:21:00,63.0,51.0,30.09,South,178,2.0,3.0,66,0.00,,,0.00,,2013-05-14 07:21:00,
2013-05-14 02:32:00,62.0,51.0,30.08,SSE,163,2.0,5.0,68,0.00,,,0.00,,2013-05-14 07:32:00,
2013-05-14 02:41:00,62.0,51.0,30.08,SSE,167,2.0,3.0,68,0.00,,,0.00,,2013-05-14 07:41:00,
2013-05-14 02:52:00,62.0,51.0,30.08,SSE,167,2.0,3.0,68,0.00,,,0.00,,2013-05-14 07:52:00,
2013-05-14 03:02:00,62.0,51.0,30.08,SSE,167,2.0,3.0,68,0.00,,,0.00,,2013-05-14 08:02:00,
2013-05-14 03:11:00,62.0,51.0,30.08,SSE,167,2.0,3.0,68,0.00,,,0.00,,2013-05-14 08:11:00,
2013-05-14 03:21:00,62.0,52.0,30.08,South,175,1.0,5.0,71,0.00,,,0.00,,2013-05-14 08:21:00,
2013-05-14 03:32:00,62.0,52.0,30.08,South,175,1.0,5.0,71,0.00,,,0.00,,2013-05-14 08:32:00,
2013-05-14 03:42:00,61.0,53.0,30.07,South,185,1.0,3.0,74,0.00,,,0.00,,2013-05-14 08:42:00,
2013-05-14 03:51:00,61.0,53.0,30.07,South,185,1.0,3.0,74,0.00,,,0.00,,2013-05-14 08:51:00,
2013-05-14 04:02:00,60.0,52.0,30.07,South,188,2.0,5.0,75,0.00,,,0.00,,2013-05-14 09:02:00,
2013-05-14 04:11:00,60.0,52.0,30.07,South,188,2.0,5.0,75,0.00,,,0.00,,2013-05-14 09:11:00,
2013-05-14 04:21:00,60.0,52.0,30.07,South,188,2.0,5.0,75,0.00,,,0.00,,2013-05-14 09:21:00,
2013-05-14 04:32:00,60.0,52.0,30.07,South,188,2.0,5.0,75,0.00,,,0.00,,2013-05-14 09:32:00,
2013-05-14 04:44:00,60.0,52.0,30.07,South,188,2.0,5.0,75,0.00,,,0.00,,2013-05-14 09:44:00,
2013-05-14 05:04:00,60.0,54.0,30.07,South,169,3.0,5.0,80,0.00,,,0.00,,2013-05-14 10:04:00,
2013-05-14 05:14:00,60.0,54.0,30.07,South,169,3.0,5.0,80,0.00,,,0.00,,2013-05-14 10:14:00,
2013-05-14 05:25:00,60.0,54.0,30.07,South,169,3.0,5.0,80,0.00,,,0.00,,2013-05-14 10:25:00,
2013-05-14 05:33:00,60.0,54.0,30.07,South,169,3.0,5.0,80,0.00,,,0.00,,2013-05-14 10:33:00,
2013-05-14 05:42:00,60.0,54.0,30.07,South,169,3.0,5.0,80,0.00,,,0.00,,2013-05-14 10:42:00,
2013-05-14 05:52:00,60.0,54.0,30.08,SSE,162,3.0,5.0,81,0.00,,,0.00,,2013-05-14 10:52:00,
2013-05-14 06:02:00,60.0,54.0,30.08,SSE,154,3.0,5.0,81,0.00,,,0.00,,2013-05-14 11:02:00,
2013-05-14 06:11:00,60.0,54.0,30.08,SSE,154,3.0,5.0,81,0.00,,,0.00,,2013-05-14 11:11:00,
2013-05-14 06:21:00,60.0,54.0,30.08,SSE,154,3.0,5.0,81,0.00,,,0.00,,2013-05-14 11:21:00,
2013-05-14 06:32:00,59.0,52.0,30.08,SSE,149,5.0,7.0,79,0.00,,,0.00,,2013-05-14 11:32:00,
2013-05-14 06:43:00,59.0,52.0,30.08,SSE,149,5.0,7.0,79,0.00,,,0.00,,2013-05-14 11:43:00,
2013-05-14 06:53:00,59.0,52.0,30.08,SSE,151,3.0,6.0,78,0.00,,,0.00,,2013-05-14 11:53:00,
2013-05-14 07:02:00,60.0,52.0,30.09,SSE,158,3.0,5.0,76,0.00,,,0.00,,2013-05-14 12:02:00,
2013-05-14 07:12:00,60.0,52.0,30.09,SSE,158,3.0,5.0,76,0.00,,,0.00,,2013-05-14 12:12:00,
2013-05-14 07:21:00,60.0,52.0,30.09,SSE,158,3.0,5.0,76,0.00,,,0.00,,2013-05-14 12:21:00,
2013-05-14 07:32:00,61.0,54.0,30.09,SSE,155,4.0,7.0,78,0.00,,,0.00,,2013-05-14 12:32:00,
2013-05-14 07:42:00,62.0,55.0,30.10,SSE,161,4.0,6.0,78,0.00,,,0.00,,2013-05-14 12:42:00,
2013-05-14 07:52:00,62.0,55.0,30.10,SSE,161,4.0,6.0,78,0.00,,,0.00,,2013-05-14 12:52:00,
2013-05-14 08:01:00,62.0,55.0,30.10,SSE,161,4.0,6.0,78,0.00,,,0.00,,2013-05-14 13:01:00,
2013-05-14 08:11:00,62.0,55.0,30.10,SSE,161,4.0,6.0,78,0.00,,,0.00,,2013-05-14 13:11:00,
2013-05-14 08:22:00,64.0,58.0,30.10,South,171,4.0,7.0,80,0.00,,,0.00,,2013-05-14 13:22:00,
2013-05-14 08:32:00,65.0,59.0,30.10,SSW,192,4.0,12.0,81,0.00,,,0.00,,2013-05-14 13:32:00,
2013-05-14 08:41:00,65.0,59.0,30.10,SSW,192,4.0,12.0,81,0.00,,,0.00,,2013-05-14 13:41:00,
2013-05-14 08:52:00,65.0,59.0,30.10,SSW,192,4.0,12.0,81,0.00,,,0.00,,2013-05-14 13:52:00,
2013-05-14 09:01:00,66.0,60.0,30.11,South,178,5.0,10.0,81,0.00,,,0.00,,2013-05-14 14:01:00,
2013-05-14 09:11:00,68.0,61.0,30.11,SSW,212,5.0,10.0,78,0.00,,,0.00,,2013-05-14 14:11:00,
2013-05-14 09:22:00,68.0,61.0,30.11,SSW,212,5.0,10.0,78,0.00,,,0.00,,2013-05-14 14:22:00,
2013-05-14 09:32:00,68.0,61.0,30.11,WSW,238,4.0,13.0,77,0.00,,,0.00,,2013-05-14 14:32:00,
2013-05-14 09:41:00,71.0,62.0,30.12,SSW,197,6.0,10.0,72,0.00,,,0.00,,2013-05-14 14:41:00,
2013-05-14 09:52:00,71.0,62.0,30.12,SSW,197,6.0,10.0,72,0.00,,,0.00,,2013-05-14 14:52:00,
2013-05-14 10:01:00,71.0,62.0,30.12,SSW,197,6.0,10.0,72,0.00,,,0.00,,2013-05-14 15:01:00,
2013-05-14 10:12:00,71.0,62.0,30.12,SSW,197,6.0,10.0,72,0.00,,,0.00,,2013-05-14 15:12:00,
2013-05-14 10:21:00,74.0,63.0,30.11,South,190,6.0,12.0,69,0.00,,,0.00,,2013-05-14 15:21:00,
2013-05-14 10:33:00,75.0,62.0,30.12,SSW,192,6.0,12.0,65,0.00,,,0.00,,2013-05-14 15:33:00,
2013-05-14 10:43:00,75.0,62.0,30.12,SSW,192,6.0,12.0,65,0.00,,,0.00,,2013-05-14 15:43:00,
2013-05-14 10:53:00,75.0,62.0,30.12,SSW,192,6.0,12.0,65,0.00,,,0.00,,2013-05-14 15:53:00,
2013-05-14 11:02:00,76.0,62.0,30.12,South,179,7.0,13.0,62,0.00,,,0.00,,2013-05-14 16:02:00,
2013-05-14 11:12:00,76.0,62.0,30.12,South,179,7.0,13.0,62,0.00,,,0.00,,2013-05-14 16:12:00,
2013-05-14 11:23:00,77.0,63.0,30.12,SSW,200,5.0,12.0,61,0.00,,,0.00,,2013-05-14 16:23:00,
2013-05-14 11:33:00,77.0,63.0,30.12,SSW,200,5.0,12.0,61,0.00,,,0.00,,2013-05-14 16:33:00,
2013-05-14 11:43:00,77.0,63.0,30.12,SSW,200,5.0,12.0,61,0.00,,,0.00,,2013-05-14 16:43:00,
2013-05-14 11:54:00,79.0,62.0,30.12,SSW,202,6.0,12.0,57,0.00,,,0.00,,2013-05-14 16:54:00,
2013-05-14 12:03:00,79.0,63.0,30.11,South,188,5.0,12.0,58,0.00,,,0.00,,2013-05-14 17:03:00,
2013-05-14 12:13:00,79.0,63.0,30.11,South,188,5.0,12.0,58,0.00,,,0.00,,2013-05-14 17:13:00,
2013-05-14 12:24:00,80.0,63.0,30.10,SSW,197,7.0,12.0,56,0.00,,,0.00,,2013-05-14 17:24:00,
2013-05-14 12:32:00,81.0,62.0,30.10,SSW,199,6.0,12.0,53,0.00,,,0.00,,2013-05-14 17:32:00,
2013-05-14 12:43:00,81.0,62.0,30.10,SSW,199,6.0,12.0,53,0.00,,,0.00,,2013-05-14 17:43:00,
2013-05-14 12:52:00,82.0,62.0,30.09,South,179,7.0,14.0,51,0.00,,,0.00,,2013-05-14 17:52:00,
2013-05-14 13:02:00,82.0,62.0,30.09,South,179,7.0,14.0,51,0.00,,,0.00,,2013-05-14 18:02:00,
2013-05-14 13:12:00,82.0,62.0,30.09,South,179,7.0,14.0,51,0.00,,,0.00,,2013-05-14 18:12:00,
2013-05-14 13:22:00,83.0,63.0,30.08,South,173,8.0,17.0,51,0.00,,,0.00,,2013-05-14 18:22:00,
2013-05-14 13:32:00,83.0,61.0,30.07,South,171,6.0,13.0,48,0.00,,,0.00,,2013-05-14 18:32:00,
2013-05-14 13:42:00,83.0,61.0,30.07,South,171,6.0,13.0,48,0.00,,,0.00,,2013-05-14 18:42:00,
2013-05-14 13:52:00,83.0,61.0,30.07,South,171,6.0,13.0,48,0.00,,,0.00,,2013-05-14 18:52:00,
2013-05-14 14:01:00,83.0,60.0,30.05,South,172,6.0,17.0,46,0.00,,,0.00,,2013-05-14 19:01:00,
2013-05-14 14:12:00,83.0,60.0,30.05,South,172,6.0,17.0,46,0.00,,,0.00,,2013-05-14 19:12:00,
2013-05-14 14:22:00,84.0,61.0,30.05,South,174,9.0,17.0,46,0.00,,,0.00,,2013-05-14 19:22:00,
2013-05-14 14:32:00,85.0,61.0,30.04,SSE,151,10.0,15.0,45,0.00,,,0.00,,2013-05-14 19:32:00,
2013-05-14 14:42:00,85.0,61.0,30.04,SSE,151,10.0,15.0,45,0.00,,,0.00,,2013-05-14 19:42:00,
2013-05-14 14:52:00,84.0,58.0,30.03,SSE,155,9.0,15.0,42,0.00,,,0.00,,2013-05-14 19:52:00,
2013-05-14 15:02:00,85.0,58.0,30.03,SSE,166,8.0,16.0,40,0.00,,,0.00,,2013-05-14 20:02:00,
2013-05-14 15:11:00,85.0,58.0,30.03,SSE,166,8.0,16.0,40,0.00,,,0.00,,2013-05-14 20:11:00,
2013-05-14 15:23:00,85.0,57.0,30.03,South,189,8.0,16.0,39,0.00,,,0.00,,2013-05-14 20:23:00,
2013-05-14 15:32:00,85.0,56.0,30.02,SSE,164,14.0,21.0,37,0.00,,,0.00,,2013-05-14 20:32:00,
2013-05-14 15:44:00,85.0,54.0,30.02,SSE,151,10.0,18.0,35,0.00,,,0.00,,2013-05-14 20:44:00,
2013-05-14 15:52:00,85.0,54.0,30.02,SSE,151,10.0,18.0,35,0.00,,,0.00,,2013-05-14 20:52:00,
2013-05-14 16:03:00,85.0,53.0,30.01,South,170,9.0,20.0,33,0.00,,,0.00,,2013-05-14 21:03:00,
2013-05-14 16:12:00,85.0,53.0,30.01,South,170,9.0,20.0,33,0.00,,,0.00,,2013-05-14 21:12:00,
2013-05-14 16:23:00,85.0,53.0,30.01,South,176,10.0,17.0,34,0.00,,,0.00,,2013-05-14 21:23:00,
2013-05-14 16:33:00,85.0,52.0,30.00,South,184,10.0,20.0,32,0.00,,,0.00,,2013-05-14 21:33:00,
2013-05-14 16:43:00,85.0,53.0,30.00,South,178,10.0,18.0,33,0.00,,,0.00,,2013-05-14 21:43:00,
2013-05-14 16:52:00,85.0,53.0,30.00,South,178,10.0,18.0,33,0.00,,,0.00,,2013-05-14 21:52:00,
2013-05-14 17:03:00,85.0,53.0,29.99,South,182,7.0,17.0,34,0.00,,,0.00,,2013-05-14 22:03:00,
2013-05-14 17:13:00,85.0,53.0,29.99,South,182,7.0,17.0,34,0.00,,,0.00,,2013-05-14 22:13:00,
2013-05-14 17:24:00,85.0,54.0,29.99,South,176,9.0,22.0,35,0.00,,,0.00,,2013-05-14 22:24:00,
2013-05-14 17:34:00,85.0,53.0,29.98,SSE,165,7.0,16.0,34,0.00,,,0.00,,2013-05-14 22:34:00,
2013-05-14 17:45:00,85.0,53.0,29.98,SSE,165,7.0,16.0,34,0.00,,,0.00,,2013-05-14 22:45:00,
2013-05-14 17:54:00,85.0,55.0,29.97,SSE,157,11.0,17.0,36,0.00,,,0.00,,2013-05-14 22:54:00,
2013-05-14 18:03:00,84.0,53.0,29.97,SSE,167,9.0,16.0,35,0.00,,,0.00,,2013-05-14 23:03:00,
2013-05-14 18:12:00,84.0,53.0,29.97,SSE,167,9.0,16.0,35,0.00,,,0.00,,2013-05-14 23:12:00,
2013-05-14 18:21:00,84.0,53.0,29.97,SSE,167,9.0,16.0,35,0.00,,,0.00,,2013-05-14 23:21:00,
2013-05-14 18:32:00,83.0,56.0,29.96,SSE,158,9.0,17.0,40,0.00,,,0.00,,2013-05-14 23:32:00,
2013-05-14 18:44:00,83.0,56.0,29.96,SSE,158,9.0,17.0,40,0.00,,,0.00,,2013-05-14 23:44:00,
2013-05-14 18:53:00,83.0,57.0,29.96,SSE,158,6.0,18.0,41,0.00,,,0.00,,2013-05-14 23:53:00,
2013-05-14 19:02:00,82.0,57.0,29.95,SSE,162,7.0,16.0,42,0.00,,,0.00,,2013-05-15 00:02:00,
2013-05-14 19:11:00,82.0,57.0,29.95,SSE,162,7.0,16.0,42,0.00,,,0.00,,2013-05-15 00:11:00,
2013-05-14 19:21:00,82.0,57.0,29.95,SSE,162,7.0,16.0,42,0.00,,,0.00,,2013-05-15 00:21:00,
2013-05-14 19:32:00,81.0,56.0,29.95,SSE,160,6.0,13.0,42,0.00,,,0.00,,2013-05-15 00:32:00,
2013-05-14 19:42:00,80.0,55.0,29.94,SSE,168,7.0,14.0,43,0.00,,,0.00,,2013-05-15 00:42:00,
2013-05-14 19:52:00,80.0,55.0,29.94,SSE,168,7.0,14.0,43,0.00,,,0.00,,2013-05-15 00:52:00,
2013-05-14 20:01:00,80.0,56.0,29.94,SSE,167,7.0,12.0,44,0.00,,,0.00,,2013-05-15 01:01:00,
2013-05-14 20:11:00,80.0,56.0,29.94,SSE,167,7.0,12.0,44,0.00,,,0.00,,2013-05-15 01:11:00,
2013-05-14 20:21:00,79.0,55.0,29.94,SE,143,5.0,10.0,44,0.00,,,0.00,,2013-05-15 01:21:00,
2013-05-14 20:32:00,79.0,55.0,29.94,SE,143,5.0,10.0,44,0.00,,,0.00,,2013-05-15 01:32:00,
2013-05-14 20:42:00,79.0,55.0,29.94,SE,143,5.0,10.0,44,0.00,,,0.00,,2013-05-15 01:42:00,
2013-05-14 20:52:00,79.0,55.0,29.94,SE,143,5.0,10.0,44,0.00,,,0.00,,2013-05-15 01:52:00,
2013-05-14 21:02:00,76.0,57.0,29.95,SE,143,5.0,7.0,52,0.00,,,0.00,,2013-05-15 02:02:00,
2013-05-14 21:11:00,76.0,57.0,29.95,SE,143,5.0,7.0,52,0.00,,,0.00,,2013-05-15 02:11:00,
2013-05-14 21:21:00,76.0,58.0,29.95,SE,143,5.0,9.0,53,0.00,,,0.00,,2013-05-15 02:21:00,
2013-05-14 21:31:00,76.0,58.0,29.95,SE,143,5.0,9.0,53,0.00,,,0.00,,2013-05-15 02:31:00,
2013-05-14 21:42:00,76.0,58.0,29.95,SE,143,5.0,9.0,53,0.00,,,0.00,,2013-05-15 02:42:00,
2013-05-14 21:52:00,73.0,57.0,29.96,SE,129,2.0,5.0,58,0.00,,,0.00,,2013-05-15 02:52:00,
2013-05-14 22:01:00,73.0,58.0,29.97,SE,137,3.0,5.0,60,0.00,,,0.00,,2013-05-15 03:01:00,
2013-05-14 22:12:00,73.0,58.0,29.97,SE,137,3.0,5.0,60,0.00,,,0.00,,2013-05-15 03:12:00,
2013-05-14 22:22:00,72.0,58.0,29.97,SE,136,3.0,5.0,61,0.00,,,0.00,,2013-05-15 03:22:00,
2013-05-14 22:33:00,72.0,58.0,29.97,SE,136,3.0,5.0,61,0.00,,,0.00,,2013-05-15 03:33:00,
2013-05-14 22:44:00,72.0,59.0,29.98,SE,145,5.0,8.0,63,0.00,,,0.00,,2013-05-15 03:44:00,
2013-05-14 22:54:00,72.0,59.0,29.98,SE,145,5.0,8.0,63,0.00,,,0.00,,2013-05-15 03:54:00,
2013-05-14 23:03:00,72.0,59.0,29.98,SSE,153,6.0,8.0,64,0.00,,,0.00,,2013-05-15 04:03:00,
2013-05-14 23:12:00,72.0,59.0,29.98,SSE,153,6.0,8.0,64,0.00,,,0.00,,2013-05-15 04:12:00,
2013-05-14 23:24:00,72.0,60.0,29.99,SE,142,6.0,10.0,65,0.00,,,0.00,,2013-05-15 04:24:00,
2013-05-14 23:33:00,71.0,59.0,29.98,SSE,149,7.0,12.0,66,0.00,,,0.00,,2013-05-15 04:33:00,
2013-05-14 23:42:00,71.0,59.0,29.98,SSE,149,7.0,12.0,66,0.00,,,0.00,,2013-05-15 04:42:00,
2013-05-14 23:52:00,71.0,60.0,29.99,SSE,149,5.0,8.0,68,0.00,,,0.00,,2013-05-15 04:52:00,